Weather History for College Station, TX

Change the Weather History Date:

Saturday, November 22, 2014

  Actual Average Record
Temperature  
Mean Temperature 63 °F 58 °F  
Max Temperature 66 °F 69 °F 86 °F (1955)
Min Temperature 59 °F 48 °F 29 °F (1945)
Degree Days  
Heating Degree Days 2 8  
Month to date heating degree days 244 114  
Since 1 July heating degree days 247 151  
Cooling Degree Days 0 1  
Month to date cooling degree days 9 52  
Year to date cooling degree days 2922 3064  
Growing Degree Days 12 (Base 50)    
Moisture  
Dew Point 61 °F    
Average Humidity 97    
Maximum Humidity 100    
Minimum Humidity 93    
Precipitation  
Precipitation 2.52 in 0.09 in 2.87 in (2004)
Month to date precipitation 5.89 2.40  
Year to date precipitation 37.04 36.01  
Sea Level Pressure  
Sea Level Pressure 29.88 in    
Wind  
Wind Speed 9 mph (ESE)    
Max Wind Speed 18 mph    
Max Gust Speed 25 mph    
Visibility 6 miles    
Events Fog , Rain , Thunderstorm    
T = Trace of Precipitation, MM = Missing Value Source: NWS Daily Summary

Daily Weather History Graph

Daily Weather History Graph

Search for Another Location

Airport:

Trip Planner

Search our weather history database for the weather conditions in past years. The results will help you decide how hot, cold, wet, or windy it might be!

Date:

Astronomy

Nov. 22, 2014 Rise Set
Actual Time 6:57 AM CST 5:25 PM CST
Civil Twilight 6:31 AM CST 5:51 PM CST
Nautical Twilight 6:02 AM CST 6:20 PM CST
Astronomical Twilight 5:33 AM CST 6:49 PM CST
Moon 6:57 AM CST (11/22) 5:55 PM CST (11/22)
Length of Visible Light 11h 19m
Length of Day
10h 27m
New Moon, 0% of the Moon is Illuminated
Nov 22
New Moon
Nov 29
First Quarter
Dec 6
Full
Dec 14
Last Quarter
Dec 21
New

Hourly Weather History & Observations

Time (CST) Temp. Dew Point Humidity Pressure Visibility Wind Dir Wind Speed Gust Speed Precip Events Conditions
12:53 AM 63.0 °F 61.0 °F 93% 30.09 in 8.0 mi ESE 15.0 mph 25.3 mph N/A   Overcast
1:53 AM 63.0 °F 61.0 °F 93% 30.08 in 8.0 mi SE 16.1 mph - N/A   Overcast
2:53 AM 63.0 °F 61.0 °F 93% 30.08 in 9.0 mi SE 12.7 mph - N/A   Overcast
3:53 AM 62.1 °F 60.1 °F 93% 30.07 in 10.0 mi SE 13.8 mph - N/A   Overcast
4:53 AM 61.0 °F 60.1 °F 97% 30.05 in 9.0 mi ESE 15.0 mph - N/A   Overcast
5:53 AM 62.1 °F 60.1 °F 93% 30.05 in 8.0 mi ESE 10.4 mph - N/A   Overcast
6:53 AM 61.0 °F 59.0 °F 93% 30.04 in 9.0 mi ESE 11.5 mph - N/A   Overcast
7:53 AM 61.0 °F 59.0 °F 93% 30.04 in 9.0 mi SE 9.2 mph - N/A   Overcast
8:53 AM 63.0 °F 60.1 °F 90% 30.03 in 10.0 mi ESE 12.7 mph - N/A   Overcast
9:29 AM 63.0 °F 60.1 °F 90% 30.06 in 10.0 mi SE 10.4 mph - N/A   Overcast
9:53 AM 63.0 °F 60.1 °F 90% 30.05 in 10.0 mi SSE 5.8 mph - N/A   Overcast
10:17 AM 64.0 °F 60.1 °F 87% 30.08 in 8.0 mi SSW 4.6 mph - 0.00 in Rain Light Rain
10:32 AM 63.0 °F 60.1 °F 90% 30.08 in 5.0 mi Calm Calm - 0.02 in Rain , Thunderstorm Thunderstorms and Rain
10:53 AM 63.0 °F 61.0 °F 93% 30.07 in 7.0 mi Calm Calm - 0.03 in Rain Light Rain
11:09 AM 63.0 °F 61.0 °F 93% 30.05 in 3.0 mi ENE 6.9 mph - 0.04 in Rain , Thunderstorm Rain
11:30 AM 64.0 °F 62.1 °F 93% 30.01 in 9.0 mi East 9.2 mph - 0.05 in   Overcast
11:53 AM 64.0 °F 62.1 °F 93% 29.98 in 9.0 mi East 10.4 mph - 0.05 in   Overcast
12:39 PM 63.0 °F 61.0 °F 93% 29.94 in 10.0 mi ESE 11.5 mph - 0.00 in Rain , Thunderstorm Light Rain
12:50 PM 62.6 °F 60.8 °F 94% 29.93 in 9.0 mi ESE 11.5 mph - 0.00 in Rain , Thunderstorm Light Rain
12:53 PM 63.0 °F 60.1 °F 90% 29.92 in 8.0 mi ESE 12.7 mph - 0.00 in Rain , Thunderstorm Light Rain
1:09 PM 63.0 °F 60.1 °F 90% 29.91 in 8.0 mi East 8.1 mph - 0.01 in Rain Light Rain
1:17 PM 63.0 °F 61.0 °F 93% 29.91 in 10.0 mi East 8.1 mph - 0.01 in Rain , Thunderstorm Light Rain
1:36 PM 63.0 °F 61.0 °F 93% 29.89 in 8.0 mi East 6.9 mph - 0.01 in Rain Light Rain
1:53 PM 63.0 °F 61.0 °F 93% 29.88 in 2.0 mi ENE 4.6 mph - 0.06 in Rain , Thunderstorm Heavy Thunderstorms and Rain
1:56 PM 63.0 °F 61.0 °F 93% 29.89 in 2.5 mi Calm Calm - 0.01 in Rain , Thunderstorm Heavy Rain
2:00 PM 63.0 °F 61.0 °F 93% 29.89 in 1.8 mi Variable 3.5 mph - 0.06 in Rain , Thunderstorm Thunderstorms and Rain
2:20 PM 62.1 °F 61.0 °F 96% 29.87 in 0.5 mi NE 10.4 mph - 0.46 in Fog , Rain , Thunderstorm Heavy Thunderstorms and Rain
2:27 PM 62.1 °F 61.0 °F 96% 29.87 in 0.8 mi ENE 10.4 mph - 0.53 in Rain , Thunderstorm Heavy Thunderstorms and Rain
2:31 PM 62.1 °F 61.0 °F 96% 29.86 in 1.5 mi ENE 10.4 mph - 0.54 in Rain , Thunderstorm Heavy Thunderstorms and Rain
2:37 PM 63.0 °F 62.1 °F 97% 29.87 in 2.5 mi East 9.2 mph - 0.57 in Rain Heavy Rain
2:44 PM 63.0 °F 62.1 °F 97% 29.87 in 3.0 mi ENE 5.8 mph - 0.58 in Rain Rain
2:53 PM 63.0 °F 62.1 °F 97% 29.86 in 3.0 mi East 5.8 mph - 0.61 in Rain Heavy Rain
3:11 PM 63.0 °F 62.1 °F 97% 29.85 in 2.5 mi ESE 10.4 mph - 0.07 in Rain Heavy Rain
3:28 PM 63.0 °F 62.1 °F 97% 29.81 in 2.0 mi East 16.1 mph - 0.13 in Rain , Thunderstorm Heavy Rain
3:43 PM 63.0 °F 62.1 °F 97% 29.81 in 2.5 mi East 12.7 mph - 0.17 in Rain Rain
3:53 PM 63.0 °F 62.1 °F 97% 29.81 in 4.0 mi East 10.4 mph - 0.18 in Rain , Thunderstorm Light Rain
4:19 PM 64.0 °F 62.1 °F 93% 29.82 in 9.0 mi East 8.1 mph - 0.00 in Rain Light Rain
4:29 PM 64.0 °F 63.0 °F 96% 29.81 in 9.0 mi East 9.2 mph - 0.00 in Rain , Thunderstorm Light Rain
4:50 PM 64.4 °F 62.6 °F 94% 29.80 in 9.0 mi East 11.5 mph - 0.01 in Rain Light Rain
4:53 PM 64.9 °F 63.0 °F 93% 29.79 in 10.0 mi East 8.1 mph - 0.01 in Rain Light Rain
5:26 PM 64.9 °F 64.0 °F 97% 29.79 in 8.0 mi ESE 10.4 mph - 0.00 in Rain , Thunderstorm Light Rain
5:45 PM 64.9 °F 64.0 °F 97% 29.77 in 10.0 mi ESE 9.2 mph - 0.00 in Rain Light Rain
5:53 PM 64.9 °F 64.0 °F 97% 29.78 in 4.0 mi ESE 12.7 mph 18.4 mph 0.08 in Rain Rain
6:02 PM 64.9 °F 64.0 °F 97% 29.80 in 2.0 mi SE 10.4 mph - 0.11 in Rain Heavy Rain
6:26 PM 64.0 °F 63.0 °F 96% 29.78 in 5.0 mi ESE 6.9 mph - 0.22 in Rain Light Rain
6:53 PM 64.9 °F 64.0 °F 97% 29.78 in 6.0 mi ESE 11.5 mph - 0.30 in Rain , Thunderstorm Light Rain
7:08 PM 64.0 °F 62.1 °F 93% 29.79 in 10.0 mi SSE 8.1 mph - 0.00 in Rain Light Rain
7:19 PM 64.0 °F 62.1 °F 93% 29.80 in 2.5 mi WSW 4.6 mph - 0.10 in Rain Heavy Rain
7:27 PM 63.0 °F 62.1 °F 97% 29.79 in 1.5 mi SSE 4.6 mph - 0.19 in Rain Heavy Rain
7:50 PM 62.6 °F 62.6 °F 100% 29.78 in 2.0 mi SSE 4.6 mph - 0.60 in Rain Heavy Rain
7:53 PM 64.0 °F 63.0 °F 96% 29.78 in 1.8 mi Calm Calm - 0.64 in Rain Heavy Rain
8:01 PM 64.0 °F 63.0 °F 96% 29.79 in 3.0 mi SE 3.5 mph - 0.01 in Rain Light Rain
8:09 PM 64.0 °F 63.0 °F 96% 29.78 in 5.0 mi SSE 5.8 mph - 0.03 in Rain Light Rain
8:20 PM 64.0 °F 63.0 °F 96% 29.77 in 8.0 mi SSE 10.4 mph - 0.04 in Rain Light Rain
8:30 PM 64.9 °F 63.0 °F 93% 29.77 in 10.0 mi SSE 9.2 mph - 0.05 in Rain , Thunderstorm Light Rain
8:42 PM 64.9 °F 64.0 °F 97% 29.77 in 10.0 mi SE 9.2 mph - 0.05 in   Overcast
8:53 PM 64.9 °F 64.0 °F 97% 29.75 in 10.0 mi SSE 10.4 mph - 0.05 in   Overcast
9:14 PM 66.0 °F 64.0 °F 93% 29.75 in 10.0 mi SSE 13.8 mph - N/A   Overcast
9:53 PM 63.0 °F 60.1 °F 90% 29.79 in 10.0 mi WNW 13.8 mph 23.0 mph N/A   Overcast
10:01 PM 61.0 °F 57.9 °F 90% 29.80 in 3.0 mi WNW 16.1 mph 24.2 mph 0.05 in Rain Heavy Rain
10:07 PM 60.1 °F 57.9 °F 93% 29.79 in 1.8 mi WNW 10.4 mph 24.2 mph 0.17 in Rain Heavy Rain
10:21 PM 60.1 °F 57.9 °F 93% 29.79 in 2.0 mi WSW 5.8 mph - 0.31 in Rain , Thunderstorm Rain
10:29 PM 60.1 °F 57.9 °F 93% 29.79 in 4.0 mi SW 4.6 mph - 0.34 in Rain , Thunderstorm Rain
10:46 PM 59.0 °F 57.9 °F 96% 29.78 in 4.0 mi SSW 8.1 mph - 0.40 in Rain Rain
10:53 PM 59.0 °F 57.9 °F 96% 29.76 in 3.0 mi WSW 4.6 mph - 0.43 in Rain Heavy Rain
11:41 PM 59.0 °F 59.0 °F 100% 29.76 in 5.0 mi West 3.5 mph - 0.06 in Rain Rain
11:53 PM 59.0 °F 57.9 °F 96% 29.67 in 7.0 mi NE 15.0 mph - 0.08 in Rain Rain